Terug naar catalogus

STARLINK-34903

ActiefCommunicatieVLEO
NORAD 65372·PAYLOAD·🇺🇸 United States

Gelanceerd Aug 28, 2025 vanaf Cape Canaveral Space Force Station

Loading…

Volgende Passages (komende 24 uur)

TLE

VersSource: CelesTrak SupGP

Epoch: Sep 14, 2026, 21:18 UTC

1 65372C 25190X   26257.88798611  .00011610  00000+0  34303-3 0  2571
2 65372  53.1590   7.6053 0001074  85.7096  42.0129 15.34385315    13

Volg STARLINK-34903 in realtime met AllMySat

Download on the App Store